Location: Berg
(47.2344°N, 9.5296°E)
Time: 22:15:56
(UTC+00:00)

Cosmos 1758 Rocket - Visible Passes

Search period start: 14 May 2021 00:00
Search period end: 24 May 2021 00:00
Orbit: 603 x 635 km, 82.5° (Epoch: 13 May)

Date Brightness Start Highest point End Pass type
(mag) Time Alt. Az. Time Alt. Az. Time Alt. Az.
16 May 6.5 02:45:07 10° ESE 02:47:33 15° E 02:50:00 10° NE visible
17 May 6.0 03:00:58 10° SE 03:04:35 25° E 03:08:14 10° NNE visible
20 May 6.4 02:16:19 10° ESE 02:18:55 15° E 02:21:31 10° NE visible
21 May 5.7 02:32:16 10° SE 02:35:58 26° E 02:39:42 10° NNE visible
22 May 4.7 02:48:50 10° SSE 02:53:06 45° E 02:57:24 10° NNE visible
